,,PA_Meas_PMT16A,,PR_Meas_QMR101_102,,RH_Meas_QMH101,,SR_Meas_QMS101,,TA_Meas_QMH101,,GenWind,,GenWind,
time,status,PA,status,PR,status,RH,status,SR,status,TA,status,DirAvg,status,SpdAvg,
2013-03-22, 07:25:04,VALID,915.536,VALID,0,VALID,96.2609,VALID,139.351,VALID,19.8798,VALID,122,VALID,0,
2013-03-22, 07:26:04,VALID,915.968,VALID,0,VALID,96.2228,VALID,143.326,VALID,19.9188,VALID,131,VALID,0,
2013-03-22, 07:27:04,VALID,915.748,VALID,0,VALID,96.2151,VALID,152.996,VALID,19.9968,VALID,139,VALID,0,
2013-03-22, 07:28:04,VALID,915.685,VALID,0,VALID,96.1618,VALID,159.12,VALID,20.0163,VALID,118,VALID,0,
2013-03-22, 07:29:04,VALID,915.513,VALID,0,VALID,95.9941,VALID,170.939,VALID,20.0358,VALID,129,VALID,0,
2013-03-22, 07:30:04,VALID,915.513,VALID,0,VALID,95.8492,VALID,178.352,VALID,20.0553,VALID,134,VALID,0,
2013-03-22, 07:31:04,VALID,915.641,VALID,0,VALID,95.5748,VALID,188.237,VALID,20.0553,VALID,134,VALID,0,
2013-03-22, 07:32:04,VALID,915.549,VALID,0,VALID,95.4375,VALID,193.394,VALID,20.0944,VALID,115,VALID,0,
2013-03-22, 07:33:04,VALID,915.752,VALID,0,VALID,95.3156,VALID,197.799,VALID,20.1334,VALID,116,VALID,0,
2013-03-22, 07:34:04,VALID,915.515,VALID,0,VALID,95.1936,VALID,198.551,VALID,20.1724,VALID,122,VALID,0,
2013-03-22, 07:35:04,VALID,915.736,VALID,0,VALID,95.0183,VALID,202.956,VALID,20.1919,VALID,95,VALID,0,
2013-03-22, 07:36:04,VALID,915.517,VALID,0,VALID,94.8124,VALID,208.114,VALID,20.2699,VALID,94,VALID,0,
2013-03-22, 07:37:04,VALID,915.644,VALID,0,VALID,94.6218,VALID,210.8,VALID,20.3089,VALID,112,VALID,0,
2013-03-22, 07:38:04,VALID,917.149,VALID,0,VALID,94.3093,VALID,221.006,VALID,20.3284,VALID,91,VALID,0,
2013-03-22, 07:39:04,VALID,915.658,VALID,0,VALID,94.2102,VALID,224.552,VALID,20.3674,VALID,105,VALID,0,
2013-03-22, 07:40:04,VALID,915.88,VALID,0,VALID,94.1339,VALID,227.345,VALID,20.4064,VALID,104,VALID,0,
2013-03-22, 07:41:04,VALID,915.83,VALID,0,VALID,93.9052,VALID,229.924,VALID,20.4454,VALID,108,VALID,0,
2013-03-22, 07:42:04,VALID,915.741,VALID,0,VALID,94.0806,VALID,235.833,VALID,20.543,VALID,105,VALID,0,
2013-03-22, 07:43:04,VALID,916.142,VALID,0,VALID,93.7528,VALID,239.379,VALID,20.582,VALID,115,VALID,0,
2013-03-22, 07:44:04,VALID,916.119,VALID,0,VALID,93.3792,VALID,248.941,VALID,20.621,VALID,100,VALID,0,
2013-03-22, 07:45:04,VALID,915.91,VALID,0,VALID,92.9066,VALID,261.619,VALID,20.66,VALID,107,VALID,0,
2013-03-22, 07:46:04,VALID,916.056,VALID,0,VALID,93.181,VALID,265.809,VALID,20.717,VALID,93,VALID,0,
2013-03-22, 07:47:04,VALID,916.042,VALID,0,VALID,92.4263,VALID,271.074,VALID,20.7365,VALID,80,VALID,0,
2013-03-22, 07:48:04,VALID,916.164,VALID,0,VALID,92.5559,VALID,284.719,VALID,20.8356,VALID,127,VALID,0,
2013-03-22, 07:49:04,VALID,916.203,VALID,0,VALID,91.9231,VALID,292.347,VALID,20.8145,VALID,127,VALID,0,
2013-03-22, 07:50:04,VALID,916.579,VALID,0,VALID,91.9994,VALID,296.752,VALID,20.8746,VALID,141,VALID,0,
2013-03-22, 07:51:04,INVALID,909.731,VALID,0,VALID,92.0299,VALID,302.554,VALID,20.9511,VALID,127,VALID,0,
2013-03-22, 07:52:04,VALID,916.354,VALID,0,VALID,91.7326,VALID,306.1,VALID,21.0697,VALID,173,VALID,0,
2013-03-22, 07:53:04,VALID,916.384,VALID,0,VALID,90.9016,VALID,313.513,VALID,21.0876,VALID,169,VALID,0,
2013-03-22, 07:54:04,VALID,916.405,VALID,0,VALID,90.5891,VALID,316.629,VALID,21.1266,VALID,165,VALID,0,
2013-03-22, 07:55:04,VALID,916.296,VALID,0,VALID,90.5738,VALID,317.811,VALID,21.1673,VALID,149,VALID,0,
2013-03-22, 07:56:04,VALID,916.513,VALID,0,VALID,90.5586,VALID,322.538,VALID,21.2258,VALID,167,VALID,0,
2013-03-22, 07:57:04,VALID,916.298,VALID,0,VALID,90.9626,VALID,325.869,VALID,21.3234,VALID,174,VALID,0,
2013-03-22, 07:58:04,VALID,916.49,VALID,0,VALID,90.3985,VALID,329.522,VALID,21.3217,VALID,116,VALID,0,
2013-03-22, 07:59:04,VALID,916.657,VALID,0,VALID,90.1774,VALID,333.39,VALID,21.3608,VALID,137,VALID,0,
2013-03-22, 08:00:04,VALID,916.727,VALID,0,VALID,90.5433,VALID,338.225,VALID,21.3998,VALID,206,VALID,0,
2013-03-22, 08:01:04,VALID,916.547,VALID,0,VALID,89.9029,VALID,344.349,VALID,21.4794,VALID,129,VALID,0,
2013-03-22, 08:02:04,VALID,916.626,VALID,0,VALID,90.3756,VALID,347.25,VALID,21.5965,VALID,125,VALID,0,
2013-03-22, 08:03:04,VALID,916.625,VALID,0,VALID,89.8343,VALID,347.035,VALID,21.6356,VALID,116,VALID,0,
2013-03-22, 08:04:04,VALID,916.568,VALID,0,VALID,90.2612,VALID,343.274,VALID,21.751,VALID,120,VALID,0,
2013-03-22, 08:05:04,VALID,916.859,VALID,0,VALID,88.3401,VALID,340.911,VALID,21.7526,VALID,126,VALID,0,
2013-03-22, 08:06:04,VALID,916.447,VALID,0,VALID,88.8738,VALID,341.018,VALID,21.7705,VALID,110,VALID,0,
2013-03-22, 08:07:04,VALID,916.827,VALID,0,VALID,88.5307,VALID,342.093,VALID,21.79,VALID,120,VALID,0,
2013-03-22, 08:08:04,VALID,917.283,VALID,0,VALID,89.3312,VALID,343.919,VALID,21.8485,VALID,106,VALID,0,
2013-03-22, 08:09:04,VALID,916.592,VALID,0,VALID,89.0339,VALID,343.167,VALID,21.9283,VALID,133,VALID,0,
2013-03-22, 08:10:04,VALID,916.908,VALID,0,VALID,89.1177,VALID,316.951,VALID,21.9266,VALID,114,VALID,0,
2013-03-22, 08:11:04,VALID,916.741,VALID,0,VALID,88.0581,VALID,292.24,VALID,21.8876,VALID,98,VALID,0,
2013-03-22, 08:12:04,VALID,916.753,VALID,0,VALID,89.0567,VALID,346.927,VALID,21.9266,VALID,132,VALID,0,
2013-03-22, 08:13:04,VALID,916.829,VALID,0,VALID,89.3922,VALID,369.705,VALID,22.0047,VALID,115,VALID,0,
2013-03-22, 08:14:04,VALID,916.843,VALID,0,VALID,87.4558,VALID,375.507,VALID,22.0437,VALID,123,VALID,0,
2013-03-22, 08:15:04,VALID,916.44,VALID,0,VALID,87.0899,VALID,371.531,VALID,22.0047,VALID,113,VALID,0,
2013-03-22, 08:16:04,VALID,916.722,VALID,0,VALID,88.5079,VALID,288.372,VALID,22.0827,VALID,133,VALID,0,
2013-03-22, 08:17:04,VALID,916.781,VALID,0,VALID,88.4621,VALID,218.32,VALID,22.1413,VALID,121,VALID,0,
2013-03-22, 08:18:04,VALID,916.91,VALID,0,VALID,88.5384,VALID,297.612,VALID,22.1803,VALID,136,VALID,0,
2013-03-22, 08:19:04,INVALID,911.77,VALID,0,VALID,86.6477,VALID,258.718,VALID,22.1022,VALID,129,VALID,0,
2013-03-22, 08:20:04,VALID,916.914,VALID,0,VALID,88.0352,VALID,207.147,VALID,22.081,VALID,137,VALID,0,
2013-03-22, 08:21:04,VALID,918.489,VALID,0,VALID,87.6235,VALID,211.229,VALID,22.1217,VALID,124,VALID,0,
2013-03-22, 08:22:04,VALID,916.804,VALID,0,VALID,87.9361,VALID,232.288,VALID,22.1201,VALID,113,VALID,0,
2013-03-22, 08:23:04,VALID,918.769,VALID,0,VALID,87.2271,VALID,250.23,VALID,22.1217,VALID,145,VALID,0,
2013-03-22, 08:24:04,VALID,917.69,VALID,0,VALID,87.2043,VALID,311.794,VALID,22.1998,VALID,118,VALID,0,
2013-03-22, 08:25:04,VALID,916.86,VALID,0,VALID,86.846,VALID,398.929,VALID,22.2176,VALID,132,VALID,0,
2013-03-22, 08:26:04,INVALID,920.383,VALID,0,VALID,85.954,VALID,447.278,VALID,22.2762,VALID,122,VALID,0,
2013-03-22, 08:27:04,VALID,917.942,VALID,0,VALID,86.4114,VALID,317.381,VALID,22.395,VALID,110,VALID,0,
2013-03-22, 08:28:04,VALID,917.089,VALID,0,VALID,85.8625,VALID,253.454,VALID,22.4518,VALID,94,VALID,0,
2013-03-22, 08:29:04,VALID,917.263,VALID,0,VALID,86.2818,VALID,266.669,VALID,22.5103,VALID,122,VALID,0,
2013-03-22, 08:30:04,VALID,918.201,VALID,0,VALID,84.6962,VALID,239.379,VALID,22.5103,VALID,95,VALID,0,
2013-03-22, 08:31:04,VALID,917.44,VALID,0,VALID,85.7939,VALID,237.338,VALID,22.5299,VALID,132,VALID,0,
2013-03-22, 08:32:04,VALID,917.177,VALID,0,VALID,85.6415,VALID,239.594,VALID,22.5901,VALID,162,VALID,0,
2013-03-22, 08:33:04,VALID,917.187,VALID,0,VALID,85.6186,VALID,243.677,VALID,22.6665,VALID,76,VALID,0,
2013-03-22, 08:34:04,VALID,917.35,VALID,0,VALID,85.8092,VALID,263.875,VALID,22.7641,VALID,110,VALID,0,
2013-03-22, 08:35:04,INVALID,908.95,VALID,0,VALID,83.4307,VALID,441.476,VALID,22.7836,VALID,136,VALID,0,
2013-03-22, 08:36:04,VALID,917.198,VALID,0,VALID,83.6289,VALID,277.628,VALID,22.8616,VALID,134,VALID,0,
2013-03-22, 08:37:04,VALID,917.17,VALID,0,VALID,84.4141,VALID,279.24,VALID,22.9202,VALID,130,VALID,0,
2013-03-22, 08:38:04,VALID,917.131,VALID,0,VALID,84.8944,VALID,443.839,VALID,22.9787,VALID,96,VALID,0,
2013-03-22, 08:39:04,VALID,917.634,VALID,0,VALID,82.8284,VALID,520.767,VALID,23.0373,VALID,140,VALID,0,
2013-03-22, 08:40:04,VALID,917.016,VALID,0,VALID,82.1957,VALID,538.925,VALID,23.1527,VALID,177,VALID,0,
2013-03-22, 08:41:04,INVALID,919.278,VALID,0,VALID,79.4207,VALID,544.082,VALID,23.3869,VALID,160,VALID,0,
2013-03-22, 08:42:04,VALID,917.544,VALID,0,VALID,80.5795,VALID,498.742,VALID,23.6815,VALID,129,VALID,0,
2013-03-22, 08:43:04,VALID,917.093,VALID,0,VALID,81.6239,VALID,397.962,VALID,23.8572,VALID,130,VALID,0,
2013-03-22, 08:44:04,VALID,917.018,VALID,0,VALID,79.3445,VALID,392.483,VALID,24.0329,VALID,146,VALID,0,
2013-03-22, 08:45:04,VALID,917.317,VALID,0,VALID,77.0956,VALID,284.397,VALID,24.0719,VALID,170,VALID,0,
2013-03-22, 08:46:04,VALID,917.247,VALID,0,VALID,79.3445,VALID,446.848,VALID,24.0134,VALID,164,VALID,0,
2013-03-22, 08:47:04,VALID,917.681,VALID,0,VALID,78.3916,VALID,507.23,VALID,24.111,VALID,159,VALID,0,
2013-03-22, 08:48:04,VALID,917.703,VALID,0,VALID,76.0436,VALID,498.957,VALID,24.2263,VALID,166,VALID,0,
2013-03-22, 08:49:04,VALID,917.123,VALID,0,VALID,75.5404,VALID,324.15,VALID,24.3825,VALID,164,VALID,0,
2013-03-22, 08:50:04,VALID,917.079,VALID,0,VALID,75.6395,VALID,490.791,VALID,24.2458,VALID,176,VALID,0,
2013-03-22, 08:51:04,VALID,917.166,VALID,0,VALID,76.4629,VALID,516.362,VALID,24.363,VALID,189,VALID,0,
2013-03-22, 08:52:04,VALID,917.372,VALID,0,VALID,75.9063,VALID,510.775,VALID,24.3239,VALID,152,VALID,0,
2013-03-22, 08:53:04,VALID,917.229,VALID,0,VALID,76.3942,VALID,488.75,VALID,24.4411,VALID,153,VALID,0,
2013-03-22, 08:54:04,VALID,917.017,VALID,0,VALID,75.6624,VALID,535.057,VALID,24.5424,VALID,144,VALID,0,
2013-03-22, 08:55:04,VALID,917.423,VALID,0,VALID,74.4274,VALID,483.7,VALID,24.6187,VALID,180,VALID,0,
2013-03-22, 08:56:04,VALID,917.162,VALID,0,VALID,73.5736,VALID,397.103,VALID,24.7163,VALID,229,VALID,0,
2013-03-22, 08:57:04,VALID,917.233,VALID,0,VALID,75.4642,VALID,519.908,VALID,24.7749,VALID,238,VALID,0,
2013-03-22, 08:58:04,VALID,917.151,VALID,0,VALID,74.8924,VALID,436.641,VALID,24.8707,VALID,262,VALID,0,
2013-03-22, 08:59:04,VALID,917.721,VALID,0,VALID,73.5126,VALID,387.11,VALID,24.9897,VALID,197,VALID,0,
2013-03-22, 09:00:04,VALID,917.183,VALID,0,VALID,73.7718,VALID,336.828,VALID,24.9897,VALID,128,VALID,0,
2013-03-22, 09:01:04,VALID,917.289,VALID,0,VALID,73.7642,VALID,276.124,VALID,25.0893,VALID,128,VALID,0,
2013-03-22, 09:02:04,VALID,917.326,VALID,0,VALID,77.7207,VALID,190.601,VALID,24.9311,VALID,245,VALID,0,
2013-03-22, 09:03:04,VALID,917.235,VALID,0,VALID,78.7423,VALID,170.617,VALID,24.5973,VALID,248,VALID,0,
2013-03-22, 09:04:04,VALID,917.311,VALID,0,VALID,79.3521,VALID,164.815,VALID,24.2477,VALID,243,VALID,0,
2013-03-22, 09:05:04,VALID,917.434,VALID,0,VALID,80.549,VALID,162.558,VALID,23.9939,VALID,233,VALID,0,
2013-03-22, 09:06:04,VALID,917.227,VALID,0,VALID,81.4562,VALID,159.443,VALID,23.8554,VALID,234,VALID,0,
2013-03-22, 09:07:04,VALID,917.416,VALID,0,VALID,82.249,VALID,160.839,VALID,23.8572,VALID,234,VALID,0,
2013-03-22, 09:08:04,VALID,917.341,VALID,0,VALID,82.1194,VALID,176.741,VALID,23.9743,VALID,234,VALID,0,
2013-03-22, 09:09:04,VALID,917.309,VALID,0,VALID,80.7701,VALID,216.064,VALID,23.9139,VALID,234,VALID,0,
2013-03-22, 09:10:04,VALID,917.326,VALID,0,VALID,82.2414,VALID,291.38,VALID,23.7968,VALID,234,VALID,0,
2013-03-22, 09:11:04,VALID,917.226,VALID,0,VALID,81.8298,VALID,478.435,VALID,23.7382,VALID,234,VALID,0,
2013-03-22, 09:12:04,VALID,917.196,VALID,0,VALID,81.3952,VALID,540.107,VALID,23.7205,VALID,234,VALID,0,
2013-03-22, 09:13:04,VALID,917.212,VALID,0,VALID,81.7154,VALID,594.472,VALID,23.7968,VALID,235,VALID,0,
2013-03-22, 09:14:04,VALID,917.326,VALID,0,VALID,81.2122,VALID,339.621,VALID,23.8163,VALID,240,VALID,0,
2013-03-22, 09:15:04,VALID,917.338,VALID,0,VALID,81.662,VALID,269.677,VALID,23.8377,VALID,237,VALID,0,
2013-03-22, 09:16:04,VALID,917.42,VALID,0,VALID,81.845,VALID,303.844,VALID,23.8962,VALID,231,VALID,0,
2013-03-22, 09:17:04,VALID,917.411,VALID,0,VALID,81.4257,VALID,256.569,VALID,23.9139,VALID,244,VALID,0,
2013-03-22, 09:18:04,VALID,917.383,VALID,0,VALID,81.8069,VALID,274.62,VALID,23.9139,VALID,244,VALID,0,
2013-03-22, 09:19:04,VALID,917.56,VALID,0,VALID,81.6697,VALID,490.254,VALID,23.8944,VALID,244,VALID,0,
2013-03-22, 09:20:04,VALID,917.388,VALID,0,VALID,81.014,VALID,701.483,VALID,23.8749,VALID,244,VALID,0,
2013-03-22, 09:21:04,VALID,917.259,VALID,0,VALID,81.1741,VALID,707.285,VALID,23.9139,VALID,249,VALID,0,
2013-03-22, 09:22:04,VALID,917.382,VALID,0,VALID,81.0064,VALID,472.849,VALID,24.0719,VALID,249,VALID,0,
2013-03-22, 09:23:04,VALID,917.406,VALID,0,VALID,81.4105,VALID,386.251,VALID,24.3435,VALID,251,VALID,0,
2013-03-22, 09:24:04,VALID,917.503,VALID,0,VALID,77.8656,VALID,519.156,VALID,24.5973,VALID,286,VALID,0,
2013-03-22, 09:25:04,VALID,917.361,VALID,0,VALID,77.7665,VALID,454.369,VALID,24.6382,VALID,275,VALID,0,
2013-03-22, 09:26:04,VALID,917.455,VALID,0,VALID,78.323,VALID,363.903,VALID,24.5601,VALID,255,VALID,0,
2013-03-22, 09:27:04,VALID,917.448,VALID,0,VALID,79.0929,VALID,619.613,VALID,24.4606,VALID,245,VALID,0,
2013-03-22, 09:28:04,VALID,917.614,VALID,0,VALID,78.666,VALID,786.792,VALID,24.3825,VALID,245,VALID,0,
2013-03-22, 09:29:04,VALID,917.384,VALID,0,VALID,78.3154,VALID,671.077,VALID,24.3044,VALID,245,VALID,0,
2013-03-22, 09:30:04,VALID,917.528,VALID,0,VALID,79.9849,VALID,330.596,VALID,24.3258,VALID,246,VALID,0,
2013-03-22, 09:31:04,VALID,917.458,VALID,0,VALID,78.9481,VALID,309.968,VALID,24.3239,VALID,248,VALID,0,
2013-03-22, 09:32:04,VALID,917.476,VALID,0,VALID,79.779,VALID,288.265,VALID,24.3044,VALID,247,VALID,0,
2013-03-22, 09:33:04,VALID,917.37,VALID,0,VALID,79.2302,VALID,283.43,VALID,24.3239,VALID,254,VALID,0,
2013-03-22, 09:34:04,VALID,917.305,VALID,0,VALID,76.5238,VALID,294.496,VALID,24.363,VALID,308,VALID,0,
2013-03-22, 09:35:04,VALID,917.389,VALID,0,VALID,76.8974,VALID,339.836,VALID,24.4411,VALID,308,VALID,0,
2013-03-22, 09:36:04,VALID,917.252,VALID,0,VALID,76.1656,VALID,379.697,VALID,24.5778,VALID,308,VALID,0,
2013-03-22, 09:37:04,VALID,917.348,VALID,0,VALID,74.1835,VALID,348.432,VALID,24.5973,VALID,280,VALID,0,
2013-03-22, 09:38:04,VALID,917.319,VALID,0,VALID,75.144,VALID,329.415,VALID,24.5192,VALID,280,VALID,0,
2013-03-22, 09:39:04,VALID,917.373,VALID,0,VALID,75.1898,VALID,576.314,VALID,24.5192,VALID,280,VALID,0,
2013-03-22, 09:40:04,VALID,917.248,VALID,0,VALID,74.2597,VALID,636.589,VALID,24.6187,VALID,280,VALID,0,
2013-03-22, 09:41:04,VALID,917.296,VALID,0,VALID,73.8404,VALID,501.643,VALID,24.6363,VALID,303,VALID,0,
2013-03-22, 09:42:04,VALID,917.315,VALID,0,VALID,74.5418,VALID,462.212,VALID,24.7144,VALID,303,VALID,0,
2013-03-22, 09:43:04,VALID,917.279,VALID,0,VALID,74.7933,VALID,665.061,VALID,24.7926,VALID,302,VALID,0,
2013-03-22, 09:44:04,VALID,917.37,VALID,0,VALID,75.7615,VALID,280.529,VALID,24.9488,VALID,315,VALID,0,
2013-03-22, 09:45:04,VALID,917.034,VALID,0,VALID,72.5597,VALID,690.632,VALID,25.1636,VALID,315,VALID,0,
2013-03-22, 09:46:04,VALID,917.624,VALID,0,VALID,74.0081,VALID,701.698,VALID,25.4175,VALID,315,VALID,0,
2013-03-22, 09:47:04,VALID,917.299,VALID,0,VALID,71.035,VALID,720.715,VALID,25.6909,VALID,315,VALID,0,
2013-03-22, 09:48:04,VALID,917.104,VALID,0,VALID,70.0516,VALID,721.038,VALID,26.0035,VALID,315,VALID,0,
2013-03-22, 09:49:04,VALID,917.134,VALID,0,VALID,68.7175,VALID,725.658,VALID,26.1773,VALID,265,VALID,0,
2013-03-22, 09:50:04,VALID,917.171,VALID,0,VALID,70.1431,VALID,719.533,VALID,26.3551,VALID,326,VALID,0,
2013-03-22, 09:51:04,VALID,917.097,VALID,0,VALID,67.2995,VALID,561.38,VALID,26.314,VALID,301,VALID,0,
2013-03-22, 09:52:04,VALID,917.237,VALID,0,VALID,70.3489,VALID,375.829,VALID,26.277,VALID,351,VALID,0,
2013-03-22, 09:53:04,VALID,917.201,VALID,0,VALID,69.8839,VALID,425.789,VALID,26.3551,VALID,353,VALID,0,
2013-03-22, 09:54:04,VALID,917.137,VALID,0,VALID,68.443,VALID,688.483,VALID,26.2945,VALID,323,VALID,0,
2013-03-22, 09:55:04,VALID,917.221,VALID,0,VALID,69.7695,VALID,694.392,VALID,26.1011,VALID,332,VALID,0,
2013-03-22, 09:56:04,VALID,917.172,VALID,0,VALID,71.1112,VALID,686.227,VALID,26.0836,VALID,5,VALID,0,
2013-03-22, 09:57:04,VALID,918.13,VALID,0,VALID,69.1215,VALID,702.021,VALID,26.2379,VALID,262,VALID,0,
2013-03-22, 09:58:04,VALID,917.196,VALID,0,VALID,70.6614,VALID,702.88,VALID,26.1402,VALID,249,VALID,0,
2013-03-22, 09:59:04,VALID,917.214,VALID,0,VALID,70.5318,VALID,706.533,VALID,26.2183,VALID,252,VALID,0,
2013-03-22, 10:00:04,INVALID,907.239,VALID,0,VALID,69.3807,VALID,718.029,VALID,26.1793,VALID,272,VALID,0,
2013-03-22, 10:01:04,VALID,917.482,VALID,0,VALID,71.3018,VALID,722.649,VALID,26.1402,VALID,253,VALID,0,
2013-03-22, 10:02:04,VALID,917.127,VALID,0,VALID,70.3794,VALID,718.029,VALID,26.1793,VALID,239,VALID,0,
2013-03-22, 10:03:04,VALID,917.296,VALID,0,VALID,70.0973,VALID,727.484,VALID,26.1793,VALID,245,VALID,0,
2013-03-22, 10:04:04,VALID,917.349,VALID,0,VALID,72.3538,VALID,734.575,VALID,26.1011,VALID,236,VALID,0,
2013-03-22, 10:05:04,VALID,917.376,VALID,0,VALID,71.1341,VALID,740.914,VALID,26.0425,VALID,247,VALID,0,
2013-03-22, 10:06:04,VALID,917.074,VALID,0,VALID,72.9408,VALID,739.088,VALID,25.9449,VALID,246,VALID,0,
2013-03-22, 10:07:04,VALID,917.073,VALID,0,VALID,72.0565,VALID,564.066,VALID,26.0035,VALID,236,VALID,0,
2013-03-22, 10:08:04,VALID,917.049,VALID,0,VALID,70.631,VALID,350.043,VALID,26.0992,VALID,237,VALID,0,
2013-03-22, 10:09:04,VALID,917.151,VALID,0,VALID,70.6614,VALID,461.352,VALID,26.0796,VALID,253,VALID,0,
2013-03-22, 10:10:04,INVALID,913.512,VALID,0,VALID,73.2763,VALID,695.467,VALID,26.0425,VALID,335,VALID,0,
2013-03-22, 10:11:04,VALID,917.098,VALID,0,VALID,72.613,VALID,619.398,VALID,26.1773,VALID,340,VALID,0,
2013-03-22, 10:12:04,VALID,917.14,VALID,0,VALID,69.1444,VALID,367.449,VALID,26.3336,VALID,293,VALID,0,
2013-03-22, 10:13:04,INVALID,920.723,VALID,0,VALID,70.9435,VALID,356.06,VALID,26.2554,VALID,332,VALID,0,
2013-03-22, 10:14:04,VALID,917.197,VALID,0,VALID,70.9969,VALID,361.969,VALID,26.4137,VALID,331,VALID,0,
2013-03-22, 10:15:04,VALID,917.212,VALID,0,VALID,68.5345,VALID,380.986,VALID,26.3336,VALID,285,VALID,0,
2013-03-22, 10:16:04,VALID,917.137,VALID,0,VALID,69.6018,VALID,393.772,VALID,26.3922,VALID,285,VALID,0,
2013-03-22, 10:17:04,VALID,917.242,VALID,0,VALID,69.8,VALID,374.54,VALID,26.3922,VALID,285,VALID,0,
2013-03-22, 10:18:04,VALID,917.335,VALID,0,VALID,69.8762,VALID,334.357,VALID,26.4703,VALID,286,VALID,0,
2013-03-22, 10:19:04,VALID,917.237,VALID,0,VALID,68.0542,VALID,549.884,VALID,26.6091,VALID,286,VALID,0,
2013-03-22, 10:20:04,VALID,917.056,VALID,0,VALID,68.3744,VALID,723.616,VALID,26.568,VALID,286,VALID,0,
2013-03-22, 10:21:04,VALID,917.293,VALID,0,VALID,69.4036,VALID,812.792,VALID,26.6677,VALID,286,VALID,0,
2013-03-22, 10:22:04,VALID,917.127,VALID,0,VALID,68.6336,VALID,668.606,VALID,26.7047,VALID,286,VALID,0,
2013-03-22, 10:23:04,VALID,917.108,VALID,0,VALID,68.4507,VALID,812.255,VALID,26.6266,VALID,287,VALID,0,
2013-03-22, 10:24:04,VALID,917.128,VALID,0,VALID,68.0924,VALID,753.7,VALID,26.6091,VALID,297,VALID,0,
2013-03-22, 10:25:04,VALID,917.256,VALID,0,VALID,70.0973,VALID,567.719,VALID,26.6071,VALID,317,VALID,0,
2013-03-22, 10:26:04,VALID,917.199,VALID,0,VALID,69.5179,VALID,379.697,VALID,26.6461,VALID,336,VALID,0,
2013-03-22, 10:27:04,VALID,917.224,VALID,0,VALID,70.6538,VALID,315.125,VALID,26.7829,VALID,6,VALID,0,
2013-03-22, 10:28:04,INVALID,909.984,VALID,0,VALID,69.6094,VALID,284.397,VALID,26.8806,VALID,360,VALID,0,
2013-03-22, 10:29:04,VALID,916.999,VALID,0,VALID,68.2982,VALID,250.123,VALID,26.822,VALID,343,VALID,0,
2013-03-22, 10:30:04,VALID,917.19,VALID,0,VALID,71.6067,VALID,224.552,VALID,26.7027,VALID,357,VALID,0,
2013-03-22, 10:31:04,VALID,917.508,VALID,0,VALID,69.2664,VALID,204.138,VALID,26.605,VALID,311,VALID,0,
2013-03-22, 10:32:04,VALID,917.277,VALID,0,VALID,69.9677,VALID,200.7,VALID,26.6071,VALID,12,VALID,0,
2013-03-22, 10:33:04,VALID,917.035,VALID,0,VALID,70.8673,VALID,202.634,VALID,26.6266,VALID,14,VALID,0,
2013-03-22, 10:34:04,VALID,917.07,VALID,0,VALID,72.1556,VALID,222.296,VALID,26.605,VALID,14,VALID,0,
2013-03-22, 10:35:04,VALID,917.182,VALID,0,VALID,73.4592,VALID,227.668,VALID,26.6832,VALID,14,VALID,0,
2013-03-22, 10:36:04,VALID,917.48,VALID,0,VALID,71.9879,VALID,216.494,VALID,26.7634,VALID,14,VALID,0,
2013-03-22, 10:37:04,VALID,917.22,VALID,0,VALID,72.4529,VALID,191.89,VALID,26.7243,VALID,30,VALID,0,
2013-03-22, 10:38:04,VALID,917.461,VALID,0,VALID,71.8964,VALID,189.741,VALID,26.6266,VALID,23,VALID,0,
2013-03-22, 10:39:04,VALID,919.376,VALID,0,VALID,73.909,VALID,194.254,VALID,26.3336,VALID,25,VALID,0,
2013-03-22, 10:40:04,INVALID,917.195,VALID,0,VALID,73.0933,VALID,206.824,VALID,26.0601,VALID,4,VALID,0,
2013-03-22, 10:41:04,VALID,919.364,VALID,0,VALID,74.3512,VALID,222.188,VALID,25.7866,VALID,4,VALID,0,
2013-03-22, 10:42:04,INVALID,916.954,VALID,0,VALID,76.1122,VALID,274.297,VALID,25.687,INVALID,360,VALID,0,
2013-03-22, 10:43:04,VALID,917.089,VALID,0,VALID,75.4947,VALID,260.437,VALID,25.6694,VALID,349,VALID,0,
2013-03-22, 10:44:04,VALID,917.07,VALID,0,VALID,74.1606,VALID,250.875,VALID,25.5523,VALID,312,VALID,0,
2013-03-22, 10:45:04,VALID,916.983,VALID,0,VALID,76.2875,VALID,245.288,VALID,25.4156,VALID,309,VALID,0,
2013-03-22, 10:46:04,VALID,916.884,VALID,0,VALID,75.2355,VALID,255.817,VALID,25.4546,VALID,21,VALID,0,
2013-03-22, 10:47:04,VALID,917.033,VALID,0,VALID,74.9077,VALID,270.644,VALID,25.5523,VALID,21,VALID,0,
2013-03-22, 10:48:04,VALID,917.259,VALID,0,VALID,74.7705,VALID,305.778,VALID,25.6694,VALID,258,VALID,0,
2013-03-22, 10:49:04,VALID,916.971,VALID,0,VALID,74.3436,VALID,341.555,VALID,25.7691,VALID,200,VALID,0,
2013-03-22, 10:50:04,INVALID,919.222,VALID,0,VALID,74.7628,VALID,344.456,VALID,25.8257,VALID,200,VALID,0,
2013-03-22, 10:51:04,VALID,917.834,VALID,0,VALID,74.7781,VALID,354.341,VALID,25.9038,VALID,200,VALID,0,
2013-03-22, 10:52:04,VALID,917.254,VALID,0,VALID,72.5444,VALID,355.63,VALID,25.9429,VALID,234,VALID,0,
2013-03-22, 10:53:04,VALID,918.664,VALID,0,VALID,73.1162,VALID,406.342,VALID,25.9624,VALID,212,VALID,0,
2013-03-22, 10:54:04,VALID,917.953,VALID,0,VALID,73.8252,VALID,554.181,VALID,25.982,VALID,243,VALID,0,
2013-03-22, 10:55:04,VALID,917.353,VALID,0,VALID,73.7108,VALID,526.999,VALID,25.9624,VALID,249,VALID,0,
2013-03-22, 10:56:04,VALID,916.87,VALID,0,VALID,73.5431,VALID,446.955,VALID,25.9624,VALID,249,VALID,0,
2013-03-22, 10:57:04,VALID,917.302,VALID,0,VALID,72.3081,VALID,576.099,VALID,25.9644,VALID,254,VALID,0,
2013-03-22, 10:58:04,VALID,915.518,VALID,0,VALID,72.9942,VALID,476.501,VALID,25.9038,VALID,274,VALID,0,
2013-03-22, 10:59:04,VALID,915.313,VALID,0,VALID,72.7503,VALID,480.262,VALID,25.982,VALID,313,VALID,0,
2013-03-22, 11:00:04,VALID,917.162,VALID,0,VALID,73.7184,VALID,913.787,VALID,25.9839,VALID,340,VALID,0,
2013-03-22, 11:01:04,VALID,916.95,VALID,0,VALID,73.7565,VALID,741.451,VALID,26.1773,VALID,222,VALID,0,
2013-03-22, 11:02:04,VALID,917.261,VALID,0,VALID,74.0462,VALID,733.823,VALID,26.3531,VALID,276,VALID,0,
2013-03-22, 11:03:04,VALID,917.535,VALID,0,VALID,72.4148,VALID,580.827,VALID,26.4117,VALID,278,VALID,0,
2013-03-22, 11:04:04,VALID,916.909,VALID,0,VALID,70.3413,VALID,506.263,VALID,26.57,VALID,263,VALID,0,
2013-03-22, 11:05:04,VALID,917.978,VALID,0,VALID,69.5332,VALID,520.015,VALID,26.5289,VALID,241,VALID,0,
2013-03-22, 11:06:04,VALID,916.82,VALID,0,VALID,69.9906,VALID,573.843,VALID,26.3726,VALID,246,VALID,0,
2013-03-22, 11:07:04,VALID,917.471,VALID,0,VALID,72.857,VALID,582.331,VALID,26.275,VALID,253,VALID,0,
2013-03-22, 11:08:04,VALID,917.396,VALID,0,VALID,69.6399,VALID,713.409,VALID,26.314,VALID,301,VALID,0,
2013-03-22, 11:09:04,VALID,917.208,VALID,0,VALID,70.9283,VALID,602.1,VALID,26.3336,VALID,301,VALID,0,
2013-03-22, 11:10:04,VALID,916.425,VALID,0,VALID,72.1023,VALID,514.536,VALID,26.5485,VALID,301,VALID,0,
2013-03-22, 11:11:04,INVALID,914.279,VALID,0,VALID,71.4238,VALID,458.881,VALID,26.7243,VALID,301,VALID,0,